Location: ????
(33.1659°N, 35.6604°E)
Time: 19:25:46
(UTC+00:00)

PSLV R/B - Pass Details

Date: 20 September 2019
Orbit: 300 x 305 km, 41.0° (Epoch: 15 October)

Event Time Altitude Azimuth Distance (km) Brightness Sun altitude
Rises 16:16:49 0° 250° (WSW) 1,982 7.9 -9.0°
Reaches altitude 10° 16:18:47 10° 254° (WSW) 1,164 6.7 -9.4°
Maximum altitude 16:21:21 59° 335° (NNW) 350 3.0 -10.0°
Enters shadow 16:23:44 12° 56° (NE) 1,081 4.9 -10.5°
